User: anonymous   Login
Location: Landeleau
(48.2273°N, 3.7285°W)
Time: 21:10:33
(UTC+00:00)
Language:

Cosmos 1805 - Orbit

View from above orbital plane
View from above orbital plane
View from above satellite
View from above satellite

Ground track
Ground track

The orbit data is extracted from the following two-line orbital elements,

1 17191U 86097A   20185.51959060  .00000332  00000-0  17244-4 0  9990
2 17191  82.4743  13.1050 0004390 184.9038 175.2150 15.12658194831755
Epoch (UTC): 03 July 2020 12:28:12
Eccentricity: 0.0004390
inclination: 82.4743°
perigee height: 525 km
apogee height: 531 km
right ascension of ascending node: 13.1050°
argument of perigee: 184.9038°
revolutions per day: 15.12658194
mean anomaly at epoch: 175.2150°
orbit number at epoch: 83175

The dashed part of the orbit path shows where the satellite is in the earth's shadow,  

DLR